Theta_e
338 342 342 341 341 341 341 340 340 340 340 341 339 338 339 339 337 336 334 331 333 339 335 341 339 335 334 335 334 334 334 334 334 334 334 333 336 333 331 333 334 336 336
342 342 344 342 341 337 339 338 338 338 337 335 335 334 334 334 334 337 343 338 341 340 340 335 335 333 331 331 331 331 331 330 332 336 338 339 339 329 328 330 333 336 334
341 339 341 340 339 340 339 339 338 337 338 336 336 336 339 339 339 336 336 342 337 338 339 337 334 335 339 336 333 334 339 334 333 334 338 338 335 332 330 330 331 335 337
337 338 340 341 340 341 341 339 338 338 339 338 337 338 337 339 339 338 340 339 332 333 339 338 333 340 341 342 341 342 341 342 341 340 337 332 331 332 330 330 335 332 333
338 340 339 339 340 340 341 340 340 338 340 337 334 341 343 341 340 340 342 335 330 329 327 332 336 342 343 343 345 343 342 343 343 341 332 329 329 329 331 332 331 333 337
337 338 339 339 339 340 334 325 335 319 334 339 335 338 341 339 340 330 328 327 326 326 329 328 340 343 343 342 344 345 345 343 342 342 340 330 334 335 334 335 330 330 332
335 341 343 339 338 324 322 343 342 321 322 330 330 332 331 328 327 326 326 325 325 324 326 331 340 341 344 346 345 345 344 343 340 331 332 328 330 330 329 331 331 329 329
339 341 342 337 324 327 333 343 340 320 326 329 329 327 327 327 328 328 327 326 325 325 326 332 337 344 345 346 345 344 342 340 338 330 329 328 329 330 330 332 330 330 329
338 336 326 324 332 341 338 322 321 325 328 328 328 328 329 330 330 330 329 329 329 328 331 340 342 342 343 344 344 343 341 340 336 333 329 329 329 330 331 331 331 330 329
338 330 327 330 326 323 323 326 328 328 328 329 331 332 333 334 334 334 334 333 332 335 336 338 339 340 341 341 342 341 341 341 339 333 331 330 330 331 331 332 332 332 331
335 327 331 327 329 331 333 334 335 336 338 337 337 337 337 338 339 344 345 346 344 340 336 338 338 339 339 340 340 340 340 339 339 335 333 333 333 333 334 334 333 333 332
334 329 330 331 343 348 348 349 348 347 346 344 342 343 343 344 345 347 349 350 350 350 350 349 348 345 340 337 337 337 338 338 339 340 339 339 337 338 338 338 339 338 336
330 331 330 342 347 341 340 343 344 345 345 343 343 345 346 346 349 348 348 349 348 346 345 344 338 340 345 344 346 345 339 340 341 341 342 342 342 341 341 341 341 341 342
336 331 336 344 342 341 342 344 345 341 342 342 342 346 347 348 349 348 348 342 343 345 347 345 344 340 337 335 341 338 342 343 343 341 341 341 343 344 343 344 344 343 344
343 337 333 341 345 346 345 345 342 345 342 342 345 345 346 347 347 346 349 346 345 344 345 346 339 335 339 336 338 342 338 341 340 340 342 342 341 342 342 344 344 344 344
341 347 339 338 341 343 344 344 345 340 345 342 341 342 344 344 347 345 344 348 346 346 346 347 344 337 337 335 336 336 336 337 341 339 343 343 343 343 344 344 345 345 344
345 346 345 344 344 344 346 345 346 344 343 343 342 343 338 343 347 347 349 348 346 344 344 346 342 342 342 338 342 338 337 340 344 338 347 345 345 344 345 346 344 345 344
343 343 347 347 344 345 345 343 340 343 343 345 345 336 340 340 345 347 344 345 345 344 343 344 346 341 343 344 345 343 345 346 347 345 346 346 345 344 346 346 345 342 340
347 344 347 348 346 344 345 343 345 344 346 344 347 345 343 342 341 342 345 345 344 343 339 345 345 344 344 343 344 344 343 344 346 346 345 344 344 340 343 345 347 347 348
348 346 344 348 348 347 345 344 344 343 345 343 342 344 346 346 343 347 343 340 344 346 346 347 348 347 345 343 339 340 344 344 346 347 346 347 344 342 345 348 348 348 349
349 347 344 346 347 346 338 343 344 347 346 346 347 343 344 347 346 347 345 344 346 348 347 347 347 347 347 348 349 346 343 345 345 344 345 345 343 343 342 343 344 344 347
347 347 346 347 346 336 336 343 343 348 346 349 347 348 347 349 347 348 349 345 346 345 346 349 348 348 346 350 350 349 349 340 337 342 345 341 343 344 344 346 344 342 343
347 347 348 348 344 337 339 342 343 346 346 346 347 347 347 347 347 347 348 347 347 346 344 346 346 347 347 347 349 350 351 350 349 344 339 339 340 343 346 344 344 342 342
348 348 348 348 344 344 342 342 345 346 346 349 347 348 347 346 346 345 346 347 347 344 347 346 346 345 348 348 349 347 347 347 349 348 343 337 337 335 341 345 342 344 343
347 348 348 348 345 346 346 343 346 347 346 348 348 346 344 344 344 346 344 344 341 343 344 345 345 346 348 347 347 348 348 349 348 347 346 345 346 345 340 336 342 344 345
348 348 348 348 346 349 347 346 345 347 345 346 346 346 345 346 344 343 343 342 340 340 340 343 344 343 338 340 345 346 347 347 347 347 343 343 347 346 346 345 341 338 342
Wind_Speed
13 11 11 11 12 13 13 14 14 14 14 13 14 13 14 14 13 13 13 12 12 12 12 12 12 12 12 12 11 12 12 10 11 11 9 9 9 9 8 8 10 12 12
14 14 12 13 12 13 13 13 13 13 14 14 14 13 13 13 14 14 13 13 13 13 13 13 12 12 11 11 13 13 12 11 11 9 8 8 8 8 8 8 9 9 10
15 16 14 14 14 13 13 12 12 12 13 13 13 13 14 14 14 13 14 12 13 13 13 13 13 14 14 15 15 15 14 14 11 8 6 5 5 5 6 6 7 9 9
16 16 15 14 12 11 11 11 11 12 12 12 12 12 13 13 13 13 13 12 12 13 13 12 12 14 14 15 14 12 11 10 9 8 6 2 1 3 5 6 7 7 7
16 16 14 13 11 10 10 11 11 11 12 12 12 14 14 13 13 14 11 11 12 13 13 13 15 14 15 13 12 10 9 6 7 7 6 4 3 2 4 5 5 6 7
16 15 13 11 9 10 10 11 11 10 12 12 13 15 14 11 13 12 12 12 13 13 14 15 17 16 13 11 7 4 3 7 10 7 4 5 4 3 5 5 5 5 5
17 15 11 10 10 10 12 12 11 12 15 13 14 15 15 15 15 16 16 15 15 15 15 16 18 16 13 8 5 4 4 8 11 11 7 4 3 3 5 6 5 5 5
15 13 11 10 11 13 13 11 12 15 17 17 18 19 19 18 18 18 18 17 16 16 16 18 19 15 12 8 5 5 7 9 11 9 6 4 3 4 5 6 7 5 6
13 12 12 13 14 13 12 15 17 20 21 21 22 22 20 19 19 19 18 18 19 18 18 16 14 12 11 7 3 4 7 8 9 8 4 3 2 4 5 5 5 6 6
13 13 14 14 17 19 20 22 23 24 24 23 22 21 20 19 18 18 18 19 18 18 18 16 13 11 8 6 2 3 6 9 8 6 4 2 2 2 2 3 4 4 5
14 15 17 20 25 27 26 24 23 22 19 19 19 19 18 17 17 16 16 15 16 15 12 11 9 6 3 1 2 4 7 8 9 8 5 3 3 1 2 0 2 3 4
16 18 21 26 28 26 23 20 17 16 16 17 17 16 17 15 13 11 9 10 7 7 6 3 3 3 2 2 4 6 7 7 8 8 4 2 0 1 1 1 1 1 2
18 21 26 27 25 24 21 17 15 15 16 16 17 15 11 10 11 9 10 9 6 8 8 6 8 7 4 4 5 8 7 8 8 7 7 4 3 4 3 3 3 2 2
20 23 26 25 20 16 15 17 13 15 17 16 15 11 11 11 11 12 12 13 10 11 9 8 3 7 3 8 8 6 7 9 10 8 8 9 8 7 9 6 5 8 6
20 22 25 24 19 14 13 16 12 12 13 11 9 9 10 8 7 10 11 8 8 8 10 9 4 4 7 6 7 7 4 4 9 13 12 14 13 14 14 14 11 11 11
21 20 22 20 16 12 10 12 11 11 10 11 10 7 9 7 6 8 6 6 7 6 8 7 8 7 1 11 4 3 5 6 10 10 13 13 15 18 18 18 15 15 16
25 23 22 19 14 11 11 14 14 10 12 12 8 8 5 6 4 8 5 4 3 3 6 6 5 6 6 2 5 3 8 6 8 12 18 17 14 12 15 16 20 20 17
24 24 21 19 16 13 13 13 15 14 13 11 7 8 8 6 4 2 6 4 3 3 3 4 4 5 5 6 7 9 10 11 12 13 16 15 11 12 15 15 13 15 17
25 25 23 20 19 17 15 14 13 12 10 11 8 7 6 5 3 4 6 6 4 3 4 3 4 6 10 13 14 13 15 16 14 14 13 9 8 12 14 14 9 12 15
27 24 23 21 20 18 19 18 15 13 10 10 9 9 8 5 4 4 3 7 3 4 4 5 7 9 12 14 15 16 17 16 15 12 14 11 13 15 15 12 11 12 13
29 28 27 23 22 22 21 24 18 14 11 10 11 10 10 10 10 8 7 6 8 5 4 9 11 11 10 12 14 14 16 17 20 18 16 15 13 12 14 14 14 15 17
31 31 30 25 20 20 21 26 20 17 14 9 8 9 12 13 12 12 12 10 11 11 11 11 13 13 12 10 12 17 13 17 14 13 14 17 15 15 12 11 11 12 10
32 33 32 27 23 20 21 22 21 18 18 17 14 13 13 15 16 17 18 16 16 16 13 11 10 12 14 14 14 13 10 7 23 23 20 23 18 18 17 16 13 11 11
31 31 32 27 25 23 20 22 22 19 16 13 13 11 11 10 11 14 17 21 19 17 14 13 11 12 13 15 17 16 17 20 23 28 29 30 25 24 23 22 19 14 12
27 28 32 28 27 24 20 18 22 18 15 13 13 12 10 8 10 12 11 10 12 13 15 15 15 13 12 12 14 16 17 17 19 24 33 34 29 24 20 22 23 19 14
27 26 29 29 30 26 24 21 21 20 18 15 13 12 11 12 12 10 8 10 9 11 11 10 10 11 11 11 12 11 11 14 16 16 23 27 28 29 26 21 17 19 19
Wind_Direction
150 135 132 132 125 121 120 119 117 118 117 117 115 114 115 118 117 115 116 112 110 104 101 101 100 99 101 108 110 102 95 98 101 98 107 118 116 111 110 112 117 120 124
142 130 128 132 130 127 122 121 120 120 118 118 119 119 121 117 114 112 108 107 102 103 103 103 102 99 100 104 103 100 102 99 94 98 104 105 111 100 113 115 118 126 132
141 132 132 132 128 125 123 122 121 122 120 120 116 113 112 112 112 107 104 100 106 111 110 107 104 102 98 100 104 104 96 94 95 88 87 102 104 98 112 118 127 131 128
139 133 133 135 133 130 125 123 123 123 122 122 115 111 113 112 110 111 106 102 106 112 118 117 115 114 106 103 103 102 89 85 78 71 77 113 96 117 122 130 131 135 130
140 139 137 139 136 129 126 122 122 124 120 112 121 114 112 109 108 108 103 107 107 110 117 127 125 115 107 100 91 86 76 64 41 42 51 92 82 112 134 137 142 143 140
142 143 140 135 134 132 126 123 119 123 136 125 120 122 115 115 111 107 104 101 104 111 119 125 127 117 110 101 95 87 79 57 38 26 33 61 89 114 132 140 138 131 152
146 144 138 135 133 129 127 115 115 115 131 126 117 115 111 104 100 97 96 97 100 108 118 125 130 124 120 122 122 97 67 59 46 31 25 39 76 120 130 140 131 125 150
140 132 131 132 126 123 120 114 114 116 120 118 112 106 102 98 95 94 94 93 94 101 112 124 135 136 138 134 110 63 50 61 52 35 34 45 89 123 123 135 141 137 137
133 124 124 128 129 121 123 116 115 114 115 112 109 106 103 100 96 93 91 90 92 99 112 124 132 138 143 139 119 34 20 23 46 24 16 350 29 92 109 120 145 156 152
133 126 127 130 121 117 111 110 110 111 110 110 109 108 106 103 102 98 94 92 90 96 110 121 135 143 145 153 155 339 354 347 354 24 23 354 295 349 82 111 131 163 170
138 133 132 128 118 112 107 106 107 107 109 112 112 109 106 104 103 103 100 99 96 95 105 120 125 114 107 87 2 346 344 356 360 355 350 357 342 358 345 103 182 211 208
143 137 136 132 125 118 114 111 111 109 110 113 113 109 110 106 101 88 81 75 73 100 110 140 118 81 76 34 2 332 331 347 4 353 353 34 278 170 314 307 78 64 274
138 141 144 141 135 125 117 118 119 119 118 118 118 112 94 90 92 87 87 72 90 86 66 63 100 66 108 5 348 322 315 340 352 334 337 323 290 276 228 247 250 267 284
144 143 150 149 144 136 128 131 129 129 129 125 124 108 94 85 94 83 104 109 97 74 61 53 52 44 69 37 357 317 291 327 326 322 318 317 315 300 289 276 276 269 273
156 150 158 155 149 139 127 141 131 139 135 130 126 125 125 104 103 92 115 93 77 72 43 32 353 337 330 341 16 330 311 317 316 310 296 289 304 302 292 288 291 290 281
163 164 163 166 167 162 159 161 157 154 144 133 129 145 137 150 107 107 113 80 76 59 40 36 37 21 83 60 61 9 330 329 321 325 342 329 307 299 287 284 289 292 292
170 163 173 176 172 157 145 167 179 171 171 139 139 162 176 167 139 133 142 144 76 51 30 12 21 21 29 94 43 296 330 319 328 314 314 304 294 299 294 292 280 285 287
182 182 182 183 178 167 164 156 160 173 177 176 144 127 149 177 203 173 192 217 23 333 351 342 327 325 319 302 295 292 301 296 302 306 302 295 294 306 292 289 306 295 284
196 193 191 188 187 181 183 178 173 179 177 191 192 185 178 164 173 217 228 229 265 320 300 292 324 314 291 285 292 299 292 294 304 323 317 321 317 315 320 299 299 303 292
203 202 199 193 197 202 204 197 188 190 202 195 194 209 212 207 210 207 201 232 245 270 304 296 319 319 318 312 301 292 292 292 294 300 305 311 325 339 337 330 290 300 296
206 209 207 203 203 212 209 198 198 201 201 213 234 221 218 219 223 225 233 242 213 204 266 288 292 299 311 302 312 307 289 280 282 286 278 301 310 327 326 321 326 304 289
209 209 209 210 210 203 204 198 202 208 205 212 228 219 228 226 242 253 262 254 238 242 243 262 277 279 281 280 303 319 322 302 283 267 281 295 302 301 303 313 325 342 328
215 211 210 210 206 198 200 199 206 208 215 226 237 241 240 244 246 256 260 252 254 262 264 265 273 283 274 283 303 308 314 290 305 298 290 298 295 294 291 292 300 305 312
218 216 211 214 208 194 193 207 207 207 219 234 237 240 252 248 264 262 254 250 255 261 264 269 272 284 285 290 293 294 292 294 304 306 304 305 306 299 289 288 293 283 289
214 215 213 216 209 205 203 209 214 218 237 248 244 248 253 256 249 251 266 266 259 251 260 260 265 278 291 298 301 300 296 302 307 304 304 308 308 309 300 287 284 279 279
214 215 213 215 212 209 208 217 222 226 236 239 240 246 252 252 239 238 250 247 246 250 261 266 265 273 286 295 299 307 321 326 318 320 318 312 311 306 308 303 293 277 265